Regional Weather Roundup
Issued by NWS

Home | Current Version | Previous Version | Graphics & Text | Print | Product List | Glossary On
Versions: 1 2 3 4 5 6 7 8 9 10 11 12 13 14 15 16 17 18 19 20 21 22 23 24 25 26 27 28 29 30 31 32 33 34 35 36 37 38 39 40 41 42 43 44 45 46 47 48 49 50
000
ASUS43 KTOP 130608
RWRKS

WEATHER ROUNDUP FOR KANSAS
NATIONAL WEATHER SERVICE GOODLAND KS
1200 AM CST SAT FEB 13 2016

NOTE:  "FAIR" INDICATES FEW OR NO CLOUDS BELOW 12,000 FEET WITH NO
SIGNIFICANT WEATHER AND/OR OBSTRUCTIONS TO VISIBILITY.

KSZ001>006-013>018-027>032-041>047-130700-
NORTHWEST KANSAS

CITY           SKY/WX    TMP DP  RH WIND       PRES   REMARKS
GOODLAND       CLOUDY    28  27  96 S20       30.36F WCI  15
6HR MIN TEMP:  28; 6HR MAX TEMP:  32;

HAYS           CLOUDY    27  14  59 E10       30.48S WCI  17
HILL CITY      CLOUDY    27  24  89 E10       30.48S WCI  17
6HR MIN TEMP:  27; 6HR MAX TEMP:  35;

RUSSELL        CLOUDY    26  19  74 E10       30.49F WCI  16
6HR MIN TEMP:  26; 6HR MAX TEMP:  34;

$$

KSZ061>065-074>080-084>089-130700-
SOUTHWEST KANSAS

CITY           SKY/WX    TMP DP  RH WIND       PRES   REMARKS
DODGE CITY     CLOUDY    25  22  88 E7        30.43F
6HR MIN TEMP:  24; 6HR MAX TEMP:  36;

ELKHART          N/A     30  20  66 SE16        N/A  WCI  19
GARDEN CITY    CLOUDY    25  23  92 E9        30.40S
6HR MIN TEMP:  25; 6HR MAX TEMP:  38;

GREAT BEND     CLOUDY    27  16  63 E8        30.49S
LIBERAL        CLOUDY    30  21  69 E12       30.39S WCI  21
PRATT          PTCLDY    26  20  77 E9        30.47F
6HR MIN TEMP:  26; 6HR MAX TEMP:  34;

$$

KSZ066>073-081>083-090>101-130700-
SOUTHEAST KANSAS

CITY           SKY/WX    TMP DP  RH WIND       PRES   REMARKS
CHANUTE        CLOUDY    29  11  47 NE14      30.55S WCI  18
6HR MIN TEMP:  29; 6HR MAX TEMP:  38;

COFFEYVILLE    CLOUDY    32  15  49 NE15      30.54S WCI  22
6HR MIN TEMP:  32; 6HR MAX TEMP:  43;

HUTCHINSON     CLOUDY    30  18  60 NE10      30.51F WCI  21
6HR MIN TEMP:  30; 6HR MAX TEMP:  36;

MEDICINE LODGE   N/A     30  23  75 NE7       30.48F
NEWTON         CLOUDY    28  12  50 E6        30.52F
PARSONS        CLOUDY    31  14  49 NE8       30.55S
6HR MIN TEMP:  31; 6HR MAX TEMP:  42;

WICHITA INTL   CLOUDY    33  18  53 NE15      30.52S WCI  23
6HR MIN TEMP:  33; 6HR MAX TEMP:  38;

WICHITA JABRA  CLOUDY    30  15  53 NE12      30.51F WCI  20
6HR MIN TEMP:  30; 6HR MAX TEMP:  37;

WICHITA MCCONL CLOUDY    32  17  54 NE13      30.51F WCI  22
WINFIELD       CLOUDY    34  18  52 NE12      30.52S WCI  25
6HR MIN TEMP:  34; 6HR MAX TEMP:  42;

$$

KSZ007>012-019>026-033>040-048>060-102>105-130700-
NORTHEAST KANSAS

CITY           SKY/WX    TMP DP  RH WIND       PRES   REMARKS
CONCORDIA      CLOUDY    23  13  65 NE9       30.56S
6HR MIN TEMP:  23; 6HR MAX TEMP:  28;

EMPORIA        CLOUDY    25   9  50 NE14      30.56R WCI  13
6HR MIN TEMP:  25; 6HR MAX TEMP:  34;

LAWRENCE       CLOUDY    21   5  50 N9        30.61R
6HR MIN TEMP:  21; 6HR MAX TEMP:  29;

MANHATTAN      PTCLDY    24  12  60 NE13      30.58F WCI  12
6HR MIN TEMP:  24; 6HR MAX TEMP:  32;

MARYSVILLE     CLOUDY    19   9  63 NE9       30.60S
OLATHE IND     CLOUDY    21   8  57 N10       30.59R WCI  10
6HR MIN TEMP:  21; 6HR MAX TEMP:  30;

OLATHE EXE     CLOUDY    20   0  41 N12       30.58R WCI   8
6HR MIN TEMP:  20; 6HR MAX TEMP:  30;

SALINA         CLOUDY    28  13  53 NE9       30.56S
6HR MIN TEMP:  28; 6HR MAX TEMP:  35;

TOPEKA BILLARD CLOUDY    22   4  46 N8        30.61F
6HR MIN TEMP:  22; 6HR MAX TEMP:  31;

TOPEKA FORBES  PTCLDY    22   5  48 NE8       30.59R
6HR MIN TEMP:  22; 6HR MAX TEMP:  32;

$$



USA.gov is the U.S. government's official web portal to all federal, state and local government web resources and services.